| time (UTC) | temp F | wind direction | speed MPH | gust MPH | rain 1hr in | rain 24hr in | rain mn in | humidity % | barometer mb |
| 20260902160059 | 72 | 211 | 2.0 | 5.0 | 0.00 | 0.09 | 0.06 | 96 | 1015.5 |
| 20260902154555 | 71 | 156 | 3.0 | 6.0 | 0.00 | 0.09 | 0.06 | 96 | 1015.5 |
| 20260902153055 | 71 | 114 | 3.0 | 7.0 | 0.01 | 0.09 | 0.06 | 97 | 1015.6 |
| 20260902151553 | 71 | 172 | 3.0 | 9.0 | 0.01 | 0.09 | 0.06 | 97 | 1015.3 |
| 20260902150051 | 70 | 167 | 4.0 | 7.0 | 0.02 | 0.09 | 0.06 | 97 | 1015.3 |
| 20260902144547 | 69 | 207 | 2.0 | 5.0 | 0.05 | 0.09 | 0.06 | 97 | 1015.8 |
| 20260902143046 | 69 | 185 | 1.0 | 4.0 | 0.05 | 0.08 | 0.05 | 97 | 1016.1 |
| 20260902141550 | 69 | 223 | 3.0 | 7.0 | 0.04 | 0.07 | 0.04 | 97 | 1015.5 |
| 20260902140044 | 68 | 205 | 3.0 | 9.0 | 0.04 | 0.07 | 0.04 | 96 | 1015.6 |
| 20260902134548 | 68 | 199 | 4.0 | 7.0 | 0.01 | 0.04 | 0.01 | 96 | 1016.4 |
| 20260902133042 | 68 | 216 | 2.0 | 9.0 | 0.00 | 0.03 | 0.00 | 96 | 1016.6 |
| 20260902131538 | 68 | 236 | 3.0 | 11.0 | 0.00 | 0.03 | 0.00 | 96 | 1015.9 |
| 20260902130039 | 68 | 192 | 2.0 | 9.0 | 0.00 | 0.03 | 0.00 | 96 | 1015.8 |
| 20260902124538 | 68 | 206 | 3.0 | 8.0 | 0.00 | 0.03 | 0.00 | 96 | 1015.7 |
| 20260902123034 | 68 | 176 | 4.0 | 9.0 | 0.00 | 0.03 | 0.00 | 97 | 1015.3 |
| 20260902121533 | 68 | 194 | 3.0 | 7.0 | 0.00 | 0.03 | 0.00 | 97 | 1015.2 |
| 20260902120029 | 67 | 220 | 0.0 | 3.0 | 0.00 | 0.03 | 0.00 | 98 | 1015.0 |
| 20260902114527 | 67 | 189 | 1.0 | 3.0 | 0.00 | 0.04 | 0.00 | 97 | 1014.7 |
| 20260902113023 | 67 | 202 | 1.0 | 4.0 | 0.00 | 0.04 | 0.00 | 97 | 1014.8 |
| 20260902111520 | 66 | 179 | 1.0 | 3.0 | 0.00 | 0.04 | 0.00 | 97 | 1014.7 |
| 20260902110018 | 66 | 196 | 0.0 | 0.0 | 0.00 | 0.04 | 0.00 | 97 | 1014.4 |
| 20260902104518 | 66 | 134 | 0.0 | 0.0 | 0.00 | 0.07 | 0.00 | 97 | 1014.5 |
| 20260902103013 | 66 | 35 | 0.0 | 0.0 | 0.00 | 0.07 | 0.00 | 97 | 1015.0 |
| 20260902101513 | 67 | 12 | 0.0 | 0.0 | 0.00 | 0.07 | 0.00 | 97 | 1015.0 |
| 20260902100015 | 67 | 167 | 0.0 | 0.0 | 0.00 | 0.07 | 0.00 | 97 | 1015.0 |
| 20260902094511 | 67 | 167 | 0.0 | 0.0 | 0.00 | 0.07 | 0.00 | 97 | 1015.1 |
| 20260902093011 | 67 | 192 | 0.0 | 0.0 | 0.00 | 0.07 | 0.00 | 97 | 1015.0 |
| 20260902091511 | 66 | 192 | 0.0 | 0.0 | 0.00 | 0.07 | 0.00 | 97 | 1014.9 |
| 20260902090009 | 65 | 192 | 0.0 | 0.0 | 0.00 | 0.07 | 0.00 | 97 | 1014.7 |
| 20260902084516 | 65 | 192 | 0.0 | 0.0 | 0.00 | 0.07 | 0.00 | 97 | 1014.9 |
| 20260902083011 | 65 | 192 | 0.0 | 0.0 | 0.00 | 0.07 | 0.00 | 96 | 1014.9 |
| 20260902081507 | 66 | 192 | 0.0 | 0.0 | 0.00 | 0.07 | 0.00 | 96 | 1014.9 |
| 20260902080008 | 67 | 192 | 0.0 | 1.0 | 0.00 | 0.07 | 0.00 | 97 | 1014.7 |
| 20260902074505 | 67 | 192 | 2.0 | 4.0 | 0.00 | 0.08 | 0.00 | 97 | 1014.8 |
| 20260902073004 | 67 | 167 | 0.0 | 2.0 | 0.00 | 0.08 | 0.00 | 97 | 1014.8 |
| 20260902071502 | 67 | 167 | 0.0 | 1.0 | 0.00 | 0.08 | 0.00 | 97 | 1014.8 |
| 20260902070100 | 66 | 167 | 1.0 | 2.0 | 0.00 | 0.08 | 0.00 | 97 | 1015.0 |
| 20260902064559 | 66 | 211 | 0.0 | 2.0 | 0.00 | 0.08 | 0.00 | 97 | 1015.1 |
| 20260902063114 | 66 | 213 | 0.0 | 2.0 | 0.00 | 0.08 | 0.00 | 97 | 1015.0 |
| 20260902061557 | 66 | 227 | 1.0 | 3.0 | 0.00 | 0.08 | 0.00 | 97 | 1015.2 |
| 20260902060108 | 66 | 242 | 0.0 | 2.0 | 0.00 | 0.08 | 0.00 | 96 | 1015.2 |
| 20260902054607 | 65 | 242 | 0.0 | 3.0 | 0.00 | 0.08 | 0.00 | 97 | 1015.2 |
| 20260902053054 | 65 | 284 | 0.0 | 1.0 | 0.00 | 0.08 | 0.00 | 97 | 1015.1 |
| 20260902051558 | 65 | 284 | 0.0 | 0.0 | 0.00 | 0.08 | 0.00 | 96 | 1015.1 |
| 20260902050051 | 65 | 284 | 0.0 | 0.0 | 0.00 | 0.08 | 0.00 | 96 | 1015.0 |
| 20260902044549 | 65 | 284 | 0.0 | 1.0 | 0.00 | 0.08 | 0.00 | 96 | 1014.9 |
| 20260902043106 | 65 | 284 | 0.0 | 1.0 | 0.00 | 0.08 | 0.00 | 96 | 1014.9 |
| 20260902041602 | 65 | 284 | 0.0 | 0.0 | 0.00 | 0.08 | 0.00 | 96 | 1014.8 |
| 20260902040044 | 66 | 284 | 0.0 | 0.0 | 0.01 | 0.08 | 0.00 | 96 | 1014.8 |
| 20260902034549 | 66 | 284 | 0.0 | 0.0 | 0.01 | 0.08 | 0.08 | 96 | 1014.8 |
| 20260902033049 | 67 | 284 | 0.0 | 0.0 | 0.01 | 0.08 | 0.08 | 96 | 1014.8 |
| 20260902031543 | 67 | 284 | 0.0 | 1.0 | 0.01 | 0.08 | 0.08 | 97 | 1014.7 |
| 20260902030044 | 66 | 284 | 0.0 | 1.0 | 0.00 | 0.07 | 0.07 | 96 | 1014.6 |
| 20260902024542 | 66 | 284 | 0.0 | 1.0 | 0.00 | 0.07 | 0.07 | 96 | 1014.6 |
| 20260902023041 | 65 | 284 | 0.0 | 1.0 | 0.00 | 0.07 | 0.07 | 96 | 1014.4 |
| 20260902021540 | 65 | 284 | 0.0 | 2.0 | 0.00 | 0.07 | 0.07 | 95 | 1014.4 |
| 20260902020040 | 66 | 284 | 0.0 | 1.0 | 0.00 | 0.07 | 0.07 | 95 | 1014.1 |
| 20260902014547 | 66 | 284 | 0.0 | 0.0 | 0.00 | 0.07 | 0.07 | 95 | 1014.0 |
| 20260902013045 | 66 | 284 | 0.0 | 2.0 | 0.00 | 0.07 | 0.07 | 95 | 1014.0 |
| 20260902011536 | 66 | 284 | 0.0 | 1.0 | 0.00 | 0.07 | 0.07 | 95 | 1013.9 |
| 20260902010046 | 66 | 284 | 0.0 | 1.0 | 0.00 | 0.07 | 0.07 | 95 | 1014.0 |
| 20260902004536 | 67 | 284 | 1.0 | 2.0 | 0.00 | 0.07 | 0.07 | 94 | 1013.9 |
| 20260902003108 | 67 | 284 | 1.0 | 3.0 | 0.00 | 0.07 | 0.07 | 94 | 1013.5 |
| 20260902001535 | 68 | 76 | 0.0 | 2.0 | 0.00 | 0.07 | 0.07 | 94 | 1013.1 |
| 20260902000035 | 68 | 111 | 0.0 | 3.0 | 0.01 | 0.07 | 0.07 | 93 | 1013.1 |
| 20260901234531 | 68 | 348 | 1.0 | 4.0 | 0.01 | 0.07 | 0.07 | 91 | 1012.6 |
| 20260901233033 | 69 | 196 | 2.0 | 12.0 | 0.01 | 0.07 | 0.07 | 91 | 1012.8 |
| 20260901231530 | 71 | 192 | 9.0 | 18.0 | 0.01 | 0.07 | 0.07 | 88 | 1013.6 |
| 20260901230027 | 74 | 155 | 0.0 | 2.0 | 0.00 | 0.06 | 0.06 | 93 | 1013.2 |
| 20260901224527 | 75 | 246 | 2.0 | 6.0 | 0.01 | 0.06 | 0.06 | 92 | 1012.8 |
| 20260901223027 | 76 | 207 | 2.0 | 4.0 | 0.01 | 0.06 | 0.06 | 91 | 1013.0 |
| 20260901221537 | 78 | 40 | 1.0 | 3.0 | 0.01 | 0.06 | 0.06 | 88 | 1012.6 |
| 20260901220035 | 80 | 67 | 2.0 | 8.0 | 0.01 | 0.06 | 0.06 | 84 | 1012.5 |
| 20260901214524 | 81 | 40 | 0.0 | 6.0 | 0.00 | 0.06 | 0.05 | 81 | 1012.5 |
| 20260901213024 | 82 | 89 | 3.0 | 7.0 | 0.00 | 0.06 | 0.05 | 77 | 1012.3 |
| 20260901211523 | 83 | 42 | 2.0 | 9.0 | 0.00 | 0.06 | 0.05 | 78 | 1012.3 |
| 20260901210021 | 82 | 26 | 3.0 | 6.0 | 0.00 | 0.06 | 0.05 | 78 | 1012.0 |
| 20260901204519 | 82 | 52 | 4.0 | 9.0 | 0.00 | 0.07 | 0.05 | 78 | 1012.2 |
| 20260901203018 | 82 | 5 | 4.0 | 8.0 | 0.00 | 0.07 | 0.05 | 77 | 1012.3 |
| 20260901201516 | 82 | 327 | 4.0 | 9.0 | 0.00 | 0.07 | 0.05 | 77 | 1012.4 |
| 20260901200113 | 82 | 298 | 3.0 | 10.0 | 0.00 | 0.07 | 0.05 | 78 | 1012.6 |
| 20260901194512 | 81 | 319 | 4.0 | 10.0 | 0.00 | 0.07 | 0.05 | 78 | 1012.6 |
| 20260901193012 | 82 | 30 | 4.0 | 9.0 | 0.00 | 0.07 | 0.05 | 79 | 1012.8 |
| 20260901191512 | 81 | 326 | 3.0 | 10.0 | 0.00 | 0.07 | 0.05 | 79 | 1012.7 |
| 20260901190014 | 82 | 10 | 6.0 | 10.0 | 0.00 | 0.07 | 0.05 | 80 | 1012.8 |
| 20260901184508 | 81 | 355 | 2.0 | 11.0 | 0.00 | 0.07 | 0.05 | 80 | 1012.8 |
| 20260901183005 | 81 | 348 | 5.0 | 10.0 | 0.00 | 0.07 | 0.05 | 79 | 1012.9 |
| 20260901181506 | 81 | 355 | 5.0 | 11.0 | 0.00 | 0.07 | 0.05 | 80 | 1012.8 |
| 20260901180100 | 80 | 154 | 3.0 | 10.0 | 0.00 | 0.07 | 0.05 | 83 | 1012.7 |
| 20260901174600 | 79 | 282 | 4.0 | 9.0 | 0.00 | 0.18 | 0.05 | 84 | 1012.6 |
| 20260901173053 | 77 | 316 | 2.0 | 5.0 | 0.00 | 0.18 | 0.05 | 86 | 1012.9 |
| 20260901171609 | 77 | 302 | 2.0 | 4.0 | 0.00 | 0.18 | 0.05 | 86 | 1012.8 |
| 20260901170057 | 76 | 298 | 1.0 | 5.0 | 0.00 | 0.18 | 0.05 | 87 | 1012.9 |
| 20260901164605 | 76 | 318 | 0.0 | 3.0 | 0.00 | 0.35 | 0.05 | 87 | 1012.9 |
| 20260901163106 | 76 | 342 | 1.0 | 5.0 | 0.00 | 0.35 | 0.05 | 86 | 1013.0 |
| 20260901161547 | 76 | 240 | 1.0 | 8.0 | 0.00 | 0.35 | 0.05 | 86 | 1013.0 |